Location: Brachbach
(49.1847°N, 9.7240°E)
Time: 06:34:27
(UTC+00:00)

PCSat - Pass Details

Date: 11 March 2026
Orbit: 780 x 790 km, 67.1° (Epoch: 13 April)

Event Time Altitude Azimuth Distance (km) Brightness Sun altitude
Rises 04:19:26 0° 320° (NW) 3,295 12.5 -14.5°
Reaches altitude 10° 04:23:07 10° 346° (NNW) 2,365 12.0 -13.9°
Maximum altitude 04:25:57 14° 17° (NNE) 2,083 12.1 -13.4°
Drops below altitude 10° 04:28:47 10° 49° (NE) 2,362 13.0 -13.0°
Sets 04:32:27 0° 74° (ENE) 3,289 14.8 -12.4°
